Location: Newark
(42.8481°N, 0.4872°E)
Time: 16:43:23
(UTC+00:00)

A-11 Canister half - Pass Details

Date: 27 October 2020
Orbit: 1525 x 1683 km, 47.3° (Epoch: 22 November)

Event Time Altitude Azimuth Distance (km) Brightness Sun altitude
Rises 16:38:45 0° 264° (W) 4,754 13.6 2.3°
Reaches altitude 10° 16:41:53 10° 267° (W) 3,751 12.8 1.8°
Maximum altitude 16:51:19 70° 351° (N) 1,616 9.2 0.1°
Drops below altitude 10° 17:00:37 10° 75° (ENE) 3,694 10.3 -1.5°
Enters shadow 17:03:01 - 78° (ENE) 4,459 10.7 -1.9°
Sets 17:03:41 0° 78° (ENE) 4,677 - -2.0°
